Find Starlink 31480

NORAD ID: 59306 Int'l Des: 2024-056 Owner: SPXS Country: US Constellation: starlink operational
LEOCIRCULAR

Live Position

Loading 3D Globe...

About Starlink 31480

Description loading...

Upcoming Passes

Passes for default location (London). Set your location on the main map for personalized predictions.

Altitude History

Loading altitude history...

Two-Line Element Set

1 59306U 24056L 26133.27749102 -.00000515 00000-0 -91874-5 0 9994
2 59306 42.9980 225.8242 0001215 277.1792 82.8921 15.27575942121030
Epoch: May 13, 2026 • Age: 14 hours

Current Status

Altitude 493.1 km
Velocity 7.62 km/s
Sub-Earth Point -37.08°S, 10.46°W
Launch Date Mar 24, 2024
Age 2.1 years
Type internet

Technical Details

Classification Payload
Mass 730.00 kg
Dry Mass 700.00 kg
Total Mass 730.00 kg
Length 0.30 m
Diameter 4.10 m
Span 29.00 m
Shape Box + pan
Manufacturer SPXS
Bus Type Starlink V2M
Phase Status In Orbit
Owner/State SPXS/US

Most Searched